AirNav   Air Wisconsin Up To $57,000 Bonus
 
 934 users online  

3CO8 E P M C Heliport
Estes Park, Colorado, USA

GOING TO ESTES PARK?


FAA INFORMATION EFFECTIVE 08 SEPTEMBER 2022

Location

FAA Identifier: 3CO8
Lat/Long: 40-22-16.8500N 105-30-54.2300W
40-22.280833N 105-30.903833W
40.3713472,-105.5150639
(estimated)
Elevation: 7674 ft. / 2339 m (estimated)
Variation: 12E (1990)
From city: 1 mile E of ESTES PARK, CO
Time zone: UTC -6 (UTC -7 during Standard Time)
Zip code: 80517

Heliport Operations

Heliport use: Private use. Permission required prior to landing
Activation date: 08/1994
Control tower: no
ARTCC: DENVER CENTER
FSS: DENVER FLIGHT SERVICE STATION
Attendance: CONTINUOUS
Wind indicator: yes
Segmented circle: no

Nearby radio navigation aids

VOR radial/distance  VOR name  Freq  Var
BJCr317/32.5JEFFCO VOR/DME115.4011E

Heliport Services

Runway Information

Helipad H1

Dimensions: 50 x 45 ft. / 15 x 14 m
Surface: concrete
Latitude: 40-22.280833N
Longitude: 105-30.903833W
Elevation: 7674.0 ft.
Traffic pattern: leftleft

Heliport Ownership and Management from official FAA records

Ownership: Privately-owned
Owner: ESTES PARK MEDICAL CENTER
555 PROSPECT AVE
ESTES PARK, CO 80517
Manager: GUY BEESLEY
555 PROSPECT AVE
ESTES PARK, CO 80517
Phone (970) 577-4440

Additional Remarks

A52-H1 14 FT HELISTOP ELEVATOR TWR 69 FT S.
FOR CD CTC DENVER ARTCC AT 303-651-4257.

Instrument Procedures

There are no published instrument procedures at 3CO8.

Some nearby airports with instrument procedures:

KLMO - Vance Brand Airport (20 nm SE)
KFNL - Northern Colorado Regional Airport (24 nm E)
KGNB - Granby-Grand County Airport (25 nm SW)
KEIK - Erie Municipal Airport (30 nm SE)
KBJC - Rocky Mountain Metro Airport (33 nm SE)
 
Loc | Ops | Rwys | IFR | FBO | Links
Com | Nav | Svcs | Stats | Notes

AirBoss

 
Area around 3CO8 (E P M C Heliport)
 
Road maps at: MapQuest Bing Google
 
Aerial photo
No photo
 
Sectional chart

 
Airport distance calculator
Flying to E P M C Heliport? Find the distance to fly.

From to 3CO8

Sunrise and sunset
Times for 24-Sep-2022
 Local
(UTC-6)
 Zulu
(UTC)
Morning civil twilight06:2512:25
Sunrise06:5312:53
Sunset18:5600:56
Evening civil twilight19:2301:23

Current date and time
Zulu (UTC)  24-Sep-2022 23:19:53
Local (UTC-6)  24-Sep-2022 17:19:53
 
METAR
KLMO 
20nm SE 
242255Z AUTO 03004KT 7SM CLR 28/M02 A3018 RMK AO2 T02801021
KFNL 
23nm E 
242256Z 16005KT 10SM CLR 27/M01 A3017 RMK AO2 SLP165 T02721011
K1V5 
24nm SE 
AWOS 118.825 303-541-9540
No observation available
KBDU 
24nm SE 
242255Z AUTO 07003KT 10SM CLR 26/M01 A3018 RMK AO2
KGNB 
25nm SW 
242254Z AUTO 28013G18KT 10SM CLR 20/M10 A3041 RMK AO2 T01961097
KEIK 
30nm SE 
242255Z AUTO 06006KT 10SM CLR 27/M05 A3016 RMK AO2 T02731048 PWINO
KBJC 
33nm SE 
242245Z 10004KT 10SM SKC 27/M03 A3020
K0CO 
36nm S 
242255Z AUTO 33017G28KT 301V001 10SM CLR 07/M06 A3065 RMK AO2
TAF
NOTAMs
Click for the latest NOTAMs
NOTAMs are issued by the DoD/FAA and will open in a separate window not controlled by AirNav.

 

 
 

Would you like to see your business listed on this page?

 If your business provides an interesting product or service to pilots, flight crews, aircraft, or users of the E P M C Heliport, you should consider listing it here.  To start the listing process, click on the button below
 
Add a business
 

Other Pages about E P M C Heliport

Update a link
 
Copyright © AirNav, LLC. All rights reserved. Privacy Policy  Contact